User: anonymous
Location: Mt. Cuba Astronomical Observatory
(39.8100°N, 75.6300°W)
Time: 21:50:29
(UTC-04:00)
Language:

Cosmos 2058 - Orbit

View from above orbital plane
View from above orbital plane
View from above satellite
View from above satellite

Ground track
Ground track

The orbit data is extracted from the following two-line orbital elements,

1 20465U 90010A   14244.30517076  .00001174  00000-0  10464-3 0  2052
2 20465 082.4934 147.1996 0018047 123.5127 236.7822 14.95007689332789
Epoch (UTC): 01 September 2014 07:19:26
Eccentricity: 0.0018047
inclination: 82.4934°
perigee height: 570 km
apogee height: 595 km
right ascension of ascending node: 147.1996°
argument of perigee: 123.5127°
revolutions per day: 14.95007689
mean anomaly at epoch: 236.7822°
orbit number at epoch: 33278

The dashed part of the orbit path shows where the satellite is in the earth's shadow,  

DLR